Weather History for Pontiac, MI

Change the Weather History Date:

Monday, October 10, 2011

  Actual Average Record
Temperature  
Mean Temperature 63 °F -  
Max Temperature 75 °F 60 °F 77 °F (2010)
Min Temperature 51 °F 41 °F 34 °F (2012)
Degree Days  
Heating Degree Days 2    
Growing Degree Days 13 (Base 50)    
Moisture  
Dew Point 51 °F    
Average Humidity 76    
Maximum Humidity 96    
Minimum Humidity 43    
Precipitation  
Precipitation 0.00 in - - ()
Sea Level Pressure  
Sea Level Pressure 30.26 in    
Wind  
Wind Speed 1 mph (SE)    
Max Wind Speed 10 mph    
Max Gust Speed -    
Visibility 6 miles    
Events      
Averages and records for this station are not official NWS values.
T = Trace of Precipitation, MM = Missing Value Source: NWS Daily Summary

Daily Weather History Graph

Daily Weather History Graph

Search for Another Location

Airport:

Trip Planner

Search our weather history database for the weather conditions in past years. The results will help you decide how hot, cold, wet, or windy it might be!

Date:

Astronomy

Oct. 10, 2011 Rise Set
Actual Time 7:40 AM EDT 7:00 PM EDT
Civil Twilight 7:12 AM EDT 7:28 PM EDT
Nautical Twilight 6:39 AM EDT 8:00 PM EDT
Astronomical Twilight 6:06 AM EDT 8:33 PM EDT
Moon 6:03 PM EDT (10/10) 6:20 AM EDT (10/10)
Length of Visible Light 12h 15m
Length of Day
11h 19m
Waxing Gibbous, 98% of the Moon is Illuminated
Oct 10
Waxing Gibbous
Oct 11
Full
Oct 19
Last Quarter
Oct 26
New
Nov 2
First Quarter

Hourly Weather History & Observations

Time (EDT) Temp. Dew Point Humidity Pressure Visibility Wind Dir Wind Speed Gust Speed Precip Events Conditions
12:53 AM 53.1 °F 50.0 °F 89% 30.31 in 4.0 mi Calm Calm - N/A   Clear
1:28 AM 53.6 °F 51.8 °F 94% 30.32 in 2.5 mi Calm Calm - N/A   Clear
1:38 AM 53.6 °F 50.0 °F 88% 30.32 in 3.0 mi Calm Calm - N/A   Clear
1:49 AM 51.8 °F 50.0 °F 94% 30.32 in 1.8 mi Calm Calm - N/A   Clear
1:50 AM 52.0 °F 50.0 °F 93% 30.31 in 1.8 mi Calm Calm - N/A   Clear
2:01 AM 53.6 °F 51.8 °F 94% 30.32 in 3.0 mi Calm Calm - N/A   Clear
2:53 AM 53.1 °F 51.1 °F 93% 30.31 in 5.0 mi Calm Calm - N/A   Clear
3:53 AM 52.0 °F 50.0 °F 93% 30.30 in 3.0 mi Calm Calm - N/A   Clear
4:05 AM 51.8 °F 50.0 °F 94% 30.30 in 2.5 mi Calm Calm - N/A   Clear
4:26 AM 51.8 °F 48.2 °F 88% 30.30 in 1.2 mi Calm Calm - N/A   Clear
4:37 AM 51.8 °F 48.2 °F 88% 30.30 in 3.0 mi Calm Calm - N/A   Clear
4:53 AM 52.0 °F 48.9 °F 89% 30.30 in 5.0 mi Calm Calm - N/A   Clear
5:53 AM 51.1 °F 50.0 °F 96% 30.29 in 4.0 mi Calm Calm - N/A   Clear
6:53 AM 52.0 °F 50.0 °F 93% 30.30 in 5.0 mi Calm Calm - N/A   Mostly Cloudy
7:53 AM 53.1 °F 50.0 °F 89% 30.30 in 5.0 mi Calm Calm - N/A   Mostly Cloudy
8:53 AM 55.4 °F 53.6 °F 94% 30.30 in 4.0 mi Calm Calm - N/A   Mostly Cloudy
9:53 AM 66.9 °F 57.9 °F 73% 30.30 in 7.0 mi Calm Calm - N/A   Mostly Cloudy
10:53 AM 72.0 °F 53.1 °F 51% 30.30 in 10.0 mi SSE 5.8 mph - N/A   Mostly Cloudy
11:53 AM 73.0 °F 53.1 °F 49% 30.29 in 10.0 mi SSE 6.9 mph - N/A   Mostly Cloudy
12:53 PM 73.0 °F 52.0 °F 48% 30.27 in 10.0 mi SE 9.2 mph - N/A   Mostly Cloudy
1:53 PM 73.0 °F 52.0 °F 48% 30.25 in 10.0 mi SE 5.8 mph - N/A   Mostly Cloudy
2:53 PM 73.0 °F 50.0 °F 44% 30.22 in 10.0 mi SE 8.1 mph - N/A   Overcast
3:53 PM 75.0 °F 51.1 °F 43% 30.21 in 10.0 mi SE 10.4 mph - N/A   Mostly Cloudy
4:53 PM 75.0 °F 51.1 °F 43% 30.19 in 10.0 mi SE 9.2 mph - N/A   Mostly Cloudy
5:53 PM 72.0 °F 48.9 °F 44% 30.18 in 10.0 mi SE 3.5 mph - N/A   Mostly Cloudy
6:53 PM 69.1 °F 53.1 °F 57% 30.17 in 10.0 mi SE 3.5 mph - N/A   Mostly Cloudy
7:53 PM 64.4 °F 53.6 °F 68% 30.17 in 10.0 mi Calm Calm - N/A   Mostly Cloudy
8:53 PM 60.1 °F 53.1 °F 78% 30.17 in 10.0 mi Calm Calm - N/A   Mostly Cloudy
9:53 PM 61.0 °F 54.0 °F 78% 30.17 in 10.0 mi Calm Calm - N/A   Mostly Cloudy
10:53 PM 61.0 °F 54.0 °F 78% 30.16 in 9.0 mi ESE 3.5 mph - N/A   Scattered Clouds
11:53 PM 57.9 °F 53.1 °F 84% 30.16 in 8.0 mi Calm Calm - N/A   Scattered Clouds